Regional Weather Roundup
Issued by NWS Little Rock, AR

Home | Current Version | Previous Version | Text Only | Print | Product List | Glossary On
Versions: 1 2 3 4 5 6 7 8 9 10 11 12 13 14 15 16 17 18 19 20 21 22 23 24 25 26 27 28 29 30 31 32 33 34 35 36 37 38 39 40 41 42 43 44 45 46 47 48 49 50
000
ASUS44 KLZK 220505
RWRLZK

WEATHER ROUNDUP FOR ARKANSAS
NATIONAL WEATHER SERVICE LITTLE ROCK AR
1200 AM CDT FRI SEP 22 2017

NOTE: "FAIR" INDICATES FEW OR NO CLOUDS BELOW 12,000 FEET WITH NO
SIGNIFICANT WEATHER AND/OR OBSTRUCTIONS TO VISIBILITY.

ARZ001-003-010-029-220600-
NORTHWEST ARKANSAS

CITY           SKY/WX    TMP DP  RH WIND       PRES   REMARKS
FAYETTEVILLE   CLEAR     73  70  90 S5        29.99S
FORT SMITH     CLEAR     79  71  76 SE5       29.96S
HARRISON       CLEAR     73  68  84 CALM      30.03R
BENTONVILLE    CLEAR     74  68  81 SE5       30.01S
ROGERS         CLEAR     73  68  84 E5        30.01R
SILOAM SPGS    CLEAR     76  69  79 S8        29.99S
$$

ARZ004-005-016-220600-
NORTH CENTRAL ARKANSAS

CITY           SKY/WX    TMP DP  RH WIND       PRES   REMARKS
BATESVILLE     CLEAR    N/A N/A N/A SE5       30.01S
FLIPPIN        CLEAR     73  68  84 CALM      30.01R
MTN HOME       CLEAR     75  69  81 S3        30.00S
$$

ARZ040-041-220600-
WEST CENTRAL ARKANSAS

CITY           SKY/WX    TMP DP  RH WIND       PRES   REMARKS
MENA           CLEAR     81  73  78 CALM      30.01S HX  85
MOUNT IDA      CLEAR     79  67  66 VRB3      29.98S
$$

ARZ009-017-025-026-028-220600-
NORTHEAST ARKANSAS

CITY           SKY/WX    TMP DP  RH WIND       PRES   REMARKS
JONESBORO      CLEAR     72  71  97 NE5       30.01R
NEWPORT        CLEAR     73  70  90 SE6       30.01R
BLYTHEVILLE    CLEAR     76  72  87 S3        30.02S
$$

ARZ022-023-033-042-044-220600-
CENTRAL ARKANSAS

CITY           SKY/WX    TMP DP  RH WIND       PRES   REMARKS
LITTLE ROCK    CLEAR     77  73  87 CALM      29.99S
JACKSONVILLE   CLEAR     73  72  97 CALM      29.99R
CONWAY           N/A     75  72  88 S3        29.97S
SEARCY         CLEAR     72  72 100 CALM      30.01S
HOT SPRINGS    CLEAR     74  70  87 E3        29.99F
RUSSELLVILLE   CLEAR     73  71  93 CALM      29.98S
CLINTON        FAIR      70  70 100 CALM      30.01R FOG
$$

ARZ036-220600-
EAST ARKANSAS

CITY           SKY/WX    TMP DP  RH WIND       PRES   REMARKS
WEST MEMPHIS   CLEAR     72  71  97 CALM      30.00S
$$

ARZ050-053-066-070-073-220600-
SOUTHWEST ARKANSAS

CITY           SKY/WX    TMP DP  RH WIND       PRES   REMARKS
ARKADELPHIA    FAIR      70  69  97 CALM      29.99S FOG
CAMDEN         CLEAR     72  70  94 CALM      29.98S
TEXARKANA      CLEAR     75  69  81 CALM      29.97F
EL DORADO      CLEAR     73  72  96 CALM      29.98F
DE QUEEN       CLEAR     75  73  93 CALM      29.96S
$$

ARZ056-057-069-220600-
SOUTHEAST ARKANSAS

CITY           SKY/WX    TMP DP  RH WIND       PRES   REMARKS
PINE BLUFF     CLEAR     73  72  96 CALM      29.99S
STUTTGART      CLEAR     73  71  93 CALM      30.00R
MONTICELLO     CLEAR     75  72  90 CALM      29.99S

$$






USA.gov is the U.S. government's official web portal to all federal, state and local government web resources and services.